Retour au catalogue

STARLINK-32605

ActifCommunicationsVLEO
NORAD 61921·PAYLOAD·🇺🇸 United States

Lancé Nov 11, 2024 depuis Cape Canaveral Space Force Station

Loading…

Prochains Passages (prochaines 24 heures)

TLE

FraisSource: CelesTrak SupGP

Époque: Sep 14, 2026, 21:17 UTC

1 61921C 24207K   26257.88729167 -.00007714  00000+0 -27946-3 0  2572
2 61921  43.0002 293.0721 0001524 271.7072 299.2401 15.27573581    14

Suivez STARLINK-32605 en temps réel avec AllMySat

Download on the App Store